This is the latest recevied weather packets stored in our database for station/object KELD. If no packets are shown the sender has not sent any weather packets the latest 10 day(s).
| Time | Temp. | Humidity | Pressure | Rain* | Wind** | Luminosity | Snow |
|---|---|---|---|---|---|---|---|
| 1777873407 | 13.89° C | 87% | 1016.6 hPa | - | - | - | - |
| 1777872806 | 13.89° C | 87% | 1016.6 hPa | - | - | - | - |
| 1777872211 | 13.89° C | 87% | 1016.6 hPa | - | - | - | - |
| 1777871606 | 13.89° C | 87% | 1016.6 hPa | - | - | - | - |
| 1777871008 | 13.89° C | 87% | 1016.6 hPa | - | - | - | - |
| 1777870407 | 15° C | 82% | 1016.9 hPa | - | - | - | - |
| 1777869804 | 15° C | 82% | 1016.9 hPa | - | - | - | - |
| 1777869207 | 15° C | 82% | 1016.9 hPa | - | - | - | - |
| 1777868607 | 15° C | 82% | 1016.9 hPa | - | - | - | - |
| 1777868007 | 15° C | 82% | 1016.9 hPa | - | - | - | - |
| 1777867536 | 15° C | 82% | 1016.9 hPa | - | - | - | - |
| 1777866809 | 15.56° C | 77% | 1016.9 hPa | - | - | - | - |
| 1777866212 | 15.56° C | 77% | 1016.9 hPa | - | - | - | - |
| 1777847015 | 26.67° C | 32% | 1016.6 hPa | - | - | - | - |
| 1777845213 | 26.67° C | 32% | 1017.9 hPa | - | - | - | - |
| 1777842814 | 26.67° C | 32% | 1017.9 hPa | - | - | - | - |
| 1777841612 | 25.56° C | 34% | 1019 hPa | - | - | - | - |
| 1777839815 | 25.56° C | 34% | 1019 hPa | - | - | - | - |
| 1777839215 | 25.56° C | 34% | 1019 hPa | - | - | - | - |
| 1777838611 | 25.56° C | 34% | 1019 hPa | - | - | - | - |
| 1777836813 | 25.56° C | 34% | 1020 hPa | - | - | - | - |
| 1777836212 | 25.56° C | 34% | 1020 hPa | - | - | - | - |
| 1777835613 | 25.56° C | 34% | 1020 hPa | - | - | - | - |
| 1777835012 | 25.56° C | 34% | 1020 hPa | - | - | - | - |
| 1777833216 | 23.89° C | 36% | 1021 hPa | - | - | - | - |
* Rain since midnight (hover to see other rain measurements)
** Current wind speed in m/s (hover to see current wind gust speed)